Location: Unspecified
(0.0000°N, 0.0000°E)
Time: 22:15:12
(UTC+01:00)

PROBA 2 - Visible Passes

Search period start: 20 November 2017 00:00
Search period end: 30 November 2017 00:00
Orbit: 707 x 725 km, 98.2° (Epoch: 19 November)

Date Brightness Start Highest point End Pass type
(mag) Time Alt. Az. Time Alt. Az. Time Alt. Az.
20 Nov ? 19:33:53 10° N 19:38:33 56° WNW 19:43:14 10° SSW visible
21 Nov ? 06:21:23 10° ESE 06:24:13 16° ENE 06:27:04 10° NE visible
21 Nov ? 20:22:58 10° NW 20:25:17 14° WNW 20:27:37 10° WSW visible
22 Nov ? 19:29:36 10° N 19:34:19 64° WNW 19:39:03 10° SSW visible
23 Nov ? 06:17:36 10° ESE 06:20:00 14° ENE 06:22:23 10° NE visible
23 Nov ? 20:18:17 10° NW 20:21:03 15° WNW 20:23:50 10° WSW visible
24 Nov ? 19:25:20 10° N 19:30:04 73° WNW 19:34:51 10° SSW visible
25 Nov ? 06:13:59 10° E 06:15:47 12° ENE 06:17:33 10° NE visible
25 Nov ? 20:13:41 10° NW 20:16:50 18° WNW 20:19:58 10° WSW visible
26 Nov ? 19:21:04 10° N 19:25:50 83° WNW 19:30:37 10° SSW visible
27 Nov ? 06:10:52 10° E 06:11:33 10° ENE 06:12:14 10° ENE visible
27 Nov ? 20:09:10 10° NNW 20:12:35 20° WNW 20:16:02 10° SW visible
28 Nov ? 19:16:50 10° NNE 19:21:36 87° E 19:26:24 10° S visible
29 Nov ? 20:04:40 10° NNW 20:08:21 22° WNW 20:12:03 10° SW visible
